K4DNM Weather Reports


Display with metric or nautical units.
time (UTC)temp
F
wind
direction
speed
MPH
gust
MPH
rain 1hr
in
rain 24hr
in
rain mn
in
humidity
%
barometer
mb
20191018213925 64 81 0.0 0.0 0.00 0.00 0.00 50 1014.5
20191018213649 64 81 0.0 0.0 0.00 0.00 0.00 50 1014.5
20191018213149 65 81 0.0 0.0 0.00 0.00 0.00 49 1014.5
20191018212924 65 81 0.0 0.0 0.00 0.00 0.00 48 1014.5
20191018212650 65 81 0.0 0.0 0.00 0.00 0.00 48 1014.5
20191018212149 66 80 0.0 0.0 0.00 0.00 0.00 47 1014.4
20191018211924 67 80 0.0 2.0 0.00 0.00 0.00 46 1014.4
20191018211808 67 80 0.0 2.0 0.00 0.00 0.00 43 1014.5
20191018211648 67 80 0.0 2.0 0.00 0.00 0.00 46 1014.4
20191018211148 67 80 0.0 2.0 0.00 0.00 0.00 43 1014.5
20191018210925 68 81 0.0 1.0 0.00 0.00 0.00 43 1014.5
20191018210649 68 81 0.0 1.0 0.00 0.00 0.00 43 1014.5
20191018210424 69 81 0.0 2.0 0.00 0.00 0.00 42 1014.5
20191018210149 69 81 0.0 2.0 0.00 0.00 0.00 42 1014.5
20191018205925 69 327 0.0 2.0 0.00 0.00 0.00 41 1014.5
20191018205650 69 327 0.0 2.0 0.00 0.00 0.00 41 1014.5
20191018205423 69 314 0.0 1.0 0.00 0.00 0.00 42 1014.6
20191018205149 69 314 0.0 1.0 0.00 0.00 0.00 42 1014.6
20191018204923 69 314 0.0 2.0 0.00 0.00 0.00 41 1014.6
20191018204648 69 314 0.0 2.0 0.00 0.00 0.00 41 1014.6
20191018204148 69 314 1.0 3.0 0.00 0.00 0.00 42 1014.6
20191018203649 69 307 1.0 4.0 0.00 0.00 0.00 41 1014.7
20191018203424 69 315 0.0 4.0 0.00 0.00 0.00 43 1014.6
20191018203148 69 315 0.0 4.0 0.00 0.00 0.00 43 1014.6
20191018202658 68 327 1.0 7.0 0.00 0.00 0.00 42 1014.6
20191018202648 69 327 1.0 7.0 0.00 0.00 0.00 44 1014.5
20191018202149 68 327 1.0 7.0 0.00 0.00 0.00 42 1014.6
20191018201648 69 347 1.0 3.0 0.00 0.00 0.00 40 1014.5
20191018201424 69 287 1.0 4.0 0.00 0.00 0.00 40 1014.5
20191018201148 69 287 1.0 4.0 0.00 0.00 0.00 40 1014.5
20191018200649 69 292 0.0 4.0 0.00 0.00 0.00 40 1014.3
20191018200149 69 275 0.0 3.0 0.00 0.00 0.00 41 1014.3
20191018195648 69 355 0.0 3.0 0.00 0.00 0.00 41 1014.3
20191018195425 70 270 0.0 4.0 0.00 0.00 0.00 41 1014.0
20191018195150 70 270 0.0 4.0 0.00 0.00 0.00 41 1014.0
20191018194648 70 270 0.0 4.0 0.00 0.00 0.00 38 1013.9
20191018194422 70 302 0.0 0.0 0.00 0.00 0.00 40 1013.8
20191018194146 70 302 0.0 0.0 0.00 0.00 0.00 40 1013.8
20191018193647 70 329 0.0 0.0 0.00 0.00 0.00 42 1013.8
20191018193428 70 319 0.0 0.0 0.00 0.00 0.00 42 1013.7
20191018193147 70 319 0.0 0.0 0.00 0.00 0.00 42 1013.7
20191018192647 70 308 0.0 0.0 0.00 0.00 0.00 41 1013.7
20191018192147 69 319 0.0 0.0 0.00 0.00 0.00 43 1013.8
20191018191921 68 319 0.0 0.0 0.00 0.00 0.00 45 1013.8
20191018191647 68 319 0.0 0.0 0.00 0.00 0.00 45 1013.8
20191018191156 67 335 0.0 0.0 0.00 0.00 0.00 43 1013.9
20191018191147 67 188 0.0 0.0 0.00 0.00 0.00 45 1013.8
20191018190648 67 335 0.0 0.0 0.00 0.00 0.00 43 1013.9
20191018190422 68 69 0.0 0.0 0.00 0.00 0.00 42 1013.9
20191018190147 68 69 0.0 0.0 0.00 0.00 0.00 42 1013.9
20191018185646 68 15 0.0 1.0 0.00 0.00 0.00 42 1014.1
20191018185421 68 42 1.0 11.0 0.00 0.00 0.00 44 1014.1
20191018185146 68 42 1.0 11.0 0.00 0.00 0.00 44 1014.1
20191018184646 68 327 1.0 11.0 0.00 0.00 0.00 45 1014.1
20191018184421 69 321 0.0 2.0 0.00 0.00 0.00 43 1014.3
20191018184147 69 321 0.0 2.0 0.00 0.00 0.00 43 1014.3
20191018183923 67 0 1.0 6.0 0.00 0.00 0.00 44 1014.2
20191018183647 67 0 1.0 6.0 0.00 0.00 0.00 44 1014.2
20191018183148 67 88 1.0 6.0 0.00 0.00 0.00 47 1014.3
20191018182647 67 337 0.0 5.0 0.00 0.00 0.00 46 1014.4
20191018182144 67 30 1.0 8.0 0.00 0.00 0.00 45 1014.4
20191018181920 67 314 1.0 8.0 0.00 0.00 0.00 43 1014.5
20191018181644 67 314 1.0 8.0 0.00 0.00 0.00 43 1014.5
20191018181421 67 238 1.0 10.0 0.00 0.00 0.00 50 1014.6
20191018181144 67 238 1.0 10.0 0.00 0.00 0.00 50 1014.6
20191018180919 67 235 1.0 10.0 0.00 0.00 0.00 45 1014.6
20191018180644 67 235 1.0 10.0 0.00 0.00 0.00 45 1014.6
20191018180421 66 109 1.0 6.0 0.00 0.00 0.00 45 1014.7
20191018180146 66 109 1.0 6.0 0.00 0.00 0.00 45 1014.7
20191018175923 66 281 1.0 4.0 0.00 0.00 0.00 44 1014.8
20191018175917 67 251 1.0 6.0 0.00 0.00 0.00 44 1014.7
20191018175642 67 251 1.0 6.0 0.00 0.00 0.00 44 1014.7
20191018175538 66 267 1.0 5.0 0.00 0.00 0.00 44 1015.1
20191018175143 66 281 1.0 4.0 0.00 0.00 0.00 44 1014.8
20191018174914 66 30 1.0 4.0 0.00 0.00 0.00 44 1014.8
20191018174640 66 30 1.0 4.0 0.00 0.00 0.00 44 1014.8
20191018174138 66 279 1.0 4.0 0.00 0.00 0.00 45 1014.9
20191018173638 66 267 1.0 5.0 0.00 0.00 0.00 44 1015.1
20191018173138 66 161 1.0 5.0 0.00 0.00 0.00 47 1015.1
20191018172638 66 347 1.0 6.0 0.00 0.00 0.00 44 1015.1
20191018172140 66 0 1.0 6.0 0.00 0.00 0.00 49 1015.2
20191018171912 66 86 0.0 6.0 0.00 0.00 0.00 46 1015.1
20191018171638 66 86 0.0 6.0 0.00 0.00 0.00 46 1015.1
20191018171413 65 21 0.0 2.0 0.00 0.00 0.00 46 1015.2
20191018171138 65 21 0.0 2.0 0.00 0.00 0.00 46 1015.2
20191018170640 65 21 0.0 3.0 0.00 0.00 0.00 47 1015.2
20191018170414 65 295 1.0 3.0 0.00 0.00 0.00 47 1015.4
20191018170139 65 295 1.0 3.0 0.00 0.00 0.00 47 1015.4
20191018165913 65 12 1.0 3.0 0.00 0.00 0.00 47 1015.4
20191018165638 65 12 1.0 3.0 0.00 0.00 0.00 47 1015.4
20191018165138 65 123 1.0 3.0 0.00 0.00 0.00 47 1015.3
20191018164636 64 355 1.0 4.0 0.00 0.00 0.00 47 1015.4
20191018164136 64 242 1.0 4.0 0.00 0.00 0.00 50 1015.3
20191018163911 63 338 1.0 4.0 0.00 0.00 0.00 52 1015.3
20191018163636 63 338 1.0 4.0 0.00 0.00 0.00 52 1015.3
20191018163411 64 30 1.0 4.0 0.00 0.00 0.00 49 1015.3
20191018163137 64 30 1.0 4.0 0.00 0.00 0.00 49 1015.3
20191018162638 64 298 0.0 3.0 0.00 0.00 0.00 51 1015.4
20191018162413 64 263 0.0 2.0 0.00 0.00 0.00 47 1015.4
20191018162301 64 317 0.0 0.0 0.00 0.00 0.00 47 1015.4
20191018162138 64 263 0.0 2.0 0.00 0.00 0.00 47 1015.4
20191018161636 64 317 0.0 0.0 0.00 0.00 0.00 47 1015.4
20191018161145 64 303 0.0 0.0 0.00 0.00 0.00 48 1015.4
20191018161136 64 355 0.0 0.0 0.00 0.00 0.00 46 1015.3
20191018160636 64 303 0.0 0.0 0.00 0.00 0.00 48 1015.4
20191018160137 64 344 0.0 0.0 0.00 0.00 0.00 49 1015.6
20191018155634 64 321 0.0 0.0 0.00 0.00 0.00 49 1015.7
20191018155134 64 61 0.0 1.0 0.00 0.00 0.00 49 1015.4
20191018154909 63 105 0.0 2.0 0.00 0.00 0.00 50 1015.5
20191018154634 63 105 0.0 2.0 0.00 0.00 0.00 50 1015.5
20191018154135 63 36 0.0 2.0 0.00 0.00 0.00 51 1015.4
20191018153634 62 267 0.0 2.0 0.00 0.00 0.00 50 1015.5
20191018153134 62 296 1.0 8.0 0.00 0.00 0.00 49 1015.4
20191018152914 63 312 0.0 4.0 0.00 0.00 0.00 50 1015.2
20191018152634 62 298 1.0 8.0 0.00 0.00 0.00 52 1015.3
20191018152256 62 30 0.0 2.0 0.00 0.00 0.00 53 1015.3
20191018152134 63 312 0.0 4.0 0.00 0.00 0.00 50 1015.2
20191018151634 62 30 0.0 2.0 0.00 0.00 0.00 53 1015.3
20191018151409 62 72 1.0 3.0 0.00 0.00 0.00 54 1015.2
20191018151140 62 22 1.0 4.0 0.00 0.00 0.00 53 1015.3
20191018151133 62 72 1.0 3.0 0.00 0.00 0.00 54 1015.2
20191018151127 61 40 0.0 2.0 0.00 0.00 0.00 57 1015.3
20191018150705 62 40 0.0 4.0 0.00 0.00 0.00 55 1015.3
20191018150632 62 22 1.0 4.0 0.00 0.00 0.00 53 1015.3
20191018150619 62 40 0.0 4.0 0.00 0.00 0.00 55 1015.3
20191018145632 61 40 0.0 2.0 0.00 0.00 0.00 57 1015.3
20191018145408 60 318 0.0 4.0 0.00 0.00 0.00 62 1015.3
20191018145133 60 318 0.0 4.0 0.00 0.00 0.00 62 1015.3
20191018144632 60 306 0.0 4.0 0.00 0.00 0.00 59 1015.3
20191018144132 59 11 0.0 3.0 0.00 0.00 0.00 59 1015.4
20191018143634 58 252 1.0 4.0 0.00 0.00 0.00 64 1015.2
20191018143408 57 275 1.0 4.0 0.00 0.00 0.00 62 1015.2
20191018143138 57 295 0.0 2.0 0.00 0.00 0.00 63 1015.3
20191018143133 57 275 1.0 4.0 0.00 0.00 0.00 62 1015.2
20191018142630 57 295 0.0 2.0 0.00 0.00 0.00 63 1015.3
20191018142131 56 5 0.0 3.0 0.00 0.00 0.00 69 1015.2
20191018141631 55 288 1.0 4.0 0.00 0.00 0.00 68 1015.3
20191018141131 55 315 1.0 4.0 0.00 0.00 0.00 70 1015.4
20191018140628 54 260 0.0 3.0 0.00 0.00 0.00 73 1015.3
20191018140129 53 333 0.0 3.0 0.00 0.00 0.00 72 1015.2
20191018135630 53 351 1.0 4.0 0.00 0.00 0.00 74 1015.3
20191018135405 52 297 1.0 5.0 0.00 0.00 0.00 76 1015.3
20191018135128 52 297 1.0 5.0 0.00 0.00 0.00 76 1015.3
20191018134629 51 302 0.0 5.0 0.00 0.00 0.00 78 1015.4
20191018134404 51 44 0.0 0.0 0.00 0.00 0.00 79 1015.3
20191018134127 51 44 0.0 0.0 0.00 0.00 0.00 79 1015.3
20191018133629 50 251 0.0 0.0 0.00 0.00 0.00 81 1015.2
20191018133402 49 304 0.0 0.0 0.00 0.00 0.00 86 1015.1
20191018133128 49 304 0.0 0.0 0.00 0.00 0.00 86 1015.1
20191018132628 49 309 0.0 3.0 0.00 0.00 0.00 88 1015.1
20191018132128 48 342 0.0 3.0 0.00 0.00 0.00 87 1015.1
20191018131628 47 330 0.0 2.0 0.00 0.00 0.00 90 1015.1
20191018131129 47 350 0.0 2.0 0.00 0.00 0.00 93 1015.0
20191018130910 45 304 0.0 1.0 0.00 0.00 0.00 95 1015.0
20191018130905 46 348 0.0 1.0 0.00 0.00 0.00 94 1015.0
20191018130629 46 348 0.0 1.0 0.00 0.00 0.00 94 1015.0
20191018130127 45 304 0.0 1.0 0.00 0.00 0.00 95 1015.0
20191018125909 44 309 0.0 1.0 0.00 0.00 0.00 96 1015.1
20191018125629 45 304 0.0 1.0 0.00 0.00 0.00 95 1015.0
20191018125127 44 309 0.0 1.0 0.00 0.00 0.00 96 1015.1
20191018124627 44 303 0.0 1.0 0.00 0.00 0.00 96 1015.1
20191018124403 44 218 0.0 2.0 0.00 0.00 0.00 97 1015.0
20191018124128 44 218 0.0 2.0 0.00 0.00 0.00 97 1015.0
20191018123631 43 218 0.0 2.0 0.00 0.00 0.00 97 1015.0
20191018123410 42 218 0.0 0.0 0.00 0.00 0.00 97 1014.9
20191018123129 43 218 0.0 0.0 0.00 0.00 0.00 97 1014.9
20191018122628 42 218 0.0 0.0 0.00 0.00 0.00 97 1014.9
20191018122138 42 280 0.0 1.0 0.00 0.00 0.00 97 1014.9
20191018122128 42 218 0.0 1.0 0.00 0.00 0.00 97 1014.9
20191018121627 42 280 0.0 1.0 0.00 0.00 0.00 97 1014.9
20191018121408 41 282 0.0 3.0 0.00 0.00 0.00 97 1014.7
20191018121128 41 282 0.0 3.0 0.00 0.00 0.00 97 1014.9
20191018120628 41 282 0.0 3.0 0.00 0.00 0.00 97 1014.7
20191018120414 40 271 0.0 0.0 0.00 0.00 0.00 97 1014.8
20191018120128 41 298 0.0 0.0 0.00 0.00 0.00 97 1014.7
20191018115911 40 271 0.0 0.0 0.00 0.00 0.00 97 1014.7
20191018115627 40 271 0.0 0.0 0.00 0.00 0.00 97 1014.8
20191018115403 40 271 0.0 0.0 0.00 0.00 0.00 97 1014.6
20191018115128 40 271 0.0 0.0 0.00 0.00 0.00 97 1014.6
20191018114627 40 271 0.0 0.0 0.00 0.00 0.00 97 1014.7
20191018114405 40 271 0.0 0.0 0.00 0.00 0.00 96 1014.6
20191018114129 40 271 0.0 0.0 0.00 0.00 0.00 96 1014.6
20191018113629 40 271 0.0 0.0 0.00 0.00 0.00 96 1014.5
20191018113127 40 271 0.0 0.0 0.00 0.00 0.00 96 1014.4
20191018112630 40 271 0.0 0.0 0.00 0.00 0.00 96 1014.4
20191018112125 40 255 0.0 0.0 0.00 0.00 0.00 96 1014.3
20191018111627 40 255 0.0 0.0 0.00 0.00 0.00 96 1014.2
20191018111125 40 255 0.0 0.0 0.00 0.00 0.00 96 1014.2
20191018110627 40 255 0.0 0.0 0.00 0.00 0.00 96 1014.3
20191018110127 40 255 0.0 0.0 0.00 0.00 0.00 96 1014.2
20191018105901 40 255 0.0 0.0 0.00 0.00 0.00 96 1014.3
20191018105626 40 255 0.0 0.0 0.00 0.00 0.00 96 1014.3
20191018105125 40 255 0.0 0.0 0.00 0.00 0.00 96 1014.2
20191018104626 40 255 0.0 0.0 0.00 0.00 0.00 96 1014.3
20191018104125 40 255 0.0 0.0 0.00 0.00 0.00 96 1014.2
20191018103627 40 255 0.0 0.0 0.00 0.00 0.00 96 1014.1
20191018103127 40 255 0.0 0.0 0.00 0.00 0.00 96 1014.1
20191018102627 41 255 0.0 0.0 0.00 0.00 0.00 96 1014.0
20191018102125 41 255 0.0 0.0 0.00 0.00 0.00 96 1013.9
20191018101628 41 255 0.0 0.0 0.00 0.00 0.00 96 1013.9
20191018101128 41 255 0.0 0.0 0.00 0.00 0.00 96 1013.8
20191018100626 41 253 0.0 0.0 0.00 0.00 0.00 96 1013.8
20191018100125 41 253 0.0 0.0 0.00 0.00 0.00 95 1013.7
20191018095901 41 253 0.0 0.0 0.00 0.00 0.00 96 1013.7
20191018095626 41 253 0.0 0.0 0.00 0.00 0.00 96 1013.7
20191018095401 41 253 0.0 0.0 0.00 0.00 0.00 96 1013.6
20191018095125 41 253 0.0 0.0 0.00 0.00 0.00 96 1013.6
20191018094625 41 253 0.0 0.0 0.00 0.00 0.00 96 1013.6
20191018094125 41 355 0.0 0.0 0.00 0.00 0.00 96 1013.5
20191018093626 41 355 0.0 0.0 0.00 0.00 0.00 96 1013.4
20191018093402 41 355 0.0 0.0 0.00 0.00 0.00 96 1013.3
20191018093127 41 355 0.0 0.0 0.00 0.00 0.00 96 1013.3
20191018092900 41 355 0.0 0.0 0.00 0.00 0.00 96 1013.3
20191018092625 41 355 0.0 0.0 0.00 0.00 0.00 96 1013.3
20191018092125 41 355 0.0 0.0 0.00 0.00 0.00 96 1013.2
20191018091900 41 355 0.0 0.0 0.00 0.00 0.00 96 1013.2
20191018091625 41 355 0.0 0.0 0.00 0.00 0.00 96 1013.2
20191018091123 41 0 0.0 0.0 0.00 0.00 0.00 96 1013.1
20191018090857 41 0 0.0 0.0 0.00 0.00 0.00 96 1013.1
20191018090621 41 0 0.0 0.0 0.00 0.00 0.00 96 1013.1
20191018090120 41 0 0.0 0.0 0.00 0.00 0.00 96 1013.1
20191018085617 41 320 0.0 0.0 0.00 0.00 0.00 96 1013.0
20191018085118 41 320 0.0 0.0 0.00 0.00 0.00 96 1012.8
20191018084616 41 320 0.0 0.0 0.00 0.00 0.00 95 1012.9
20191018084124 41 320 0.0 0.0 0.00 0.00 0.00 95 1012.8
20191018084115 41 320 0.0 0.0 0.00 0.00 0.00 95 1013.0
20191018083617 41 320 0.0 0.0 0.00 0.00 0.00 95 1012.8
20191018083115 41 320 0.0 0.0 0.00 0.00 0.00 95 1012.8
20191018082616 41 320 0.0 0.0 0.00 0.00 0.00 95 1012.7
20191018082353 41 320 0.0 0.0 0.00 0.00 0.00 95 1012.7
20191018082117 41 320 0.0 0.0 0.00 0.00 0.00 95 1012.7
20191018081848 41 320 0.0 0.0 0.00 0.00 0.00 95 1012.6
20191018081613 41 320 0.0 0.0 0.00 0.00 0.00 95 1012.6
20191018081123 42 320 0.0 0.0 0.00 0.00 0.00 95 1012.5
20191018081114 42 320 0.0 0.0 0.00 0.00 0.00 95 1012.5
20191018080614 42 320 0.0 0.0 0.00 0.00 0.00 95 1012.5
20191018080111 42 320 0.0 0.0 0.00 0.00 0.00 95 1012.6
20191018075611 42 320 0.0 0.0 0.00 0.00 0.00 95 1012.5
20191018075113 42 320 0.0 0.0 0.00 0.00 0.00 95 1012.4
20191018074846 42 320 0.0 0.0 0.00 0.00 0.00 95 1012.4
20191018074611 42 320 0.0 0.0 0.00 0.00 0.00 95 1012.4
20191018074112 42 320 0.0 0.0 0.00 0.00 0.00 94 1012.3
20191018073615 42 320 0.0 0.0 0.00 0.00 0.00 94 1012.3
20191018073111 42 320 0.0 0.0 0.00 0.00 0.00 95 1012.3
20191018072611 42 320 0.0 0.0 0.00 0.00 0.00 95 1012.4
20191018072112 42 320 0.0 0.0 0.00 0.00 0.00 94 1012.5
20191018071844 42 320 0.0 0.0 0.00 0.00 0.00 94 1012.5
20191018071609 42 320 0.0 0.0 0.00 0.00 0.00 94 1012.5
20191018071109 42 320 0.0 0.0 0.00 0.00 0.00 94 1012.4
20191018070609 42 320 0.0 0.0 0.00 0.00 0.00 94 1012.5
20191018070109 42 320 0.0 0.0 0.00 0.00 0.00 94 1012.5
20191018065846 43 320 0.0 0.0 0.00 0.00 0.00 94 1012.5
20191018065609 43 320 0.0 0.0 0.00 0.00 0.00 94 1012.5
20191018065342 43 320 0.0 0.0 0.00 0.00 0.00 94 1012.5
20191018065107 43 320 0.0 0.0 0.00 0.00 0.00 94 1012.5
20191018064607 43 320 0.0 0.0 0.00 0.00 0.00 94 1012.5
20191018064107 43 320 0.0 0.0 0.00 0.00 0.00 94 1012.4
20191018063607 43 320 0.0 0.0 0.00 0.00 0.00 94 1012.4
20191018063106 43 320 0.0 0.0 0.00 0.00 0.00 94 1012.3
20191018062606 43 320 0.0 0.0 0.00 0.00 0.00 94 1012.3
20191018062105 44 320 0.0 0.0 0.00 0.00 0.00 94 1012.2
20191018061606 44 320 0.0 0.0 0.00 0.00 0.00 94 1012.1
20191018061118 44 320 0.0 1.0 0.00 0.00 0.00 94 1012.0
20191018061107 44 320 0.0 0.0 0.00 0.00 0.00 94 1012.0
20191018060605 44 320 0.0 1.0 0.00 0.00 0.00 94 1012.0
20191018060342 44 320 0.0 1.0 0.00 0.00 0.00 94 1012.0
20191018060106 44 320 0.0 1.0 0.00 0.00 0.00 94 1012.0
20191018055606 44 320 0.0 0.0 0.00 0.00 0.00 94 1011.9
20191018055106 44 320 0.0 0.0 0.00 0.00 0.00 94 1011.9
20191018054606 44 320 0.0 0.0 0.00 0.00 0.00 94 1011.8
20191018054105 44 320 0.0 0.0 0.00 0.00 0.00 94 1011.8
20191018053842 44 320 0.0 0.0 0.00 0.00 0.00 94 1011.9
20191018053605 44 320 0.0 0.0 0.00 0.00 0.00 94 1011.9
20191018053115 44 320 0.0 0.0 0.00 0.00 0.00 93 1011.8
20191018053105 44 320 0.0 0.0 0.00 0.00 0.00 93 1011.8
20191018052605 44 320 0.0 0.0 0.00 0.00 0.00 93 1011.8
20191018052105 44 320 0.0 0.0 0.00 0.00 0.00 93 1011.8
20191018051603 44 320 0.0 0.0 0.00 0.00 0.00 93 1011.7
20191018051102 44 320 0.0 1.0 0.00 0.00 0.00 93 1011.6
20191018050838 44 320 0.0 1.0 0.00 0.00 0.00 93 1011.6
20191018050603 44 320 0.0 1.0 0.00 0.00 0.00 93 1011.6
20191018050104 45 320 0.0 0.0 0.00 0.00 0.00 93 1011.6
20191018045605 45 320 0.0 0.0 0.00 0.00 0.00 93 1011.6
20191018045102 45 320 0.0 0.0 0.00 0.00 0.00 94 1011.5
20191018044605 45 320 0.0 0.0 0.00 0.00 0.00 94 1011.4
20191018044104 45 320 0.0 0.0 0.00 0.00 0.00 93 1011.3
20191018043603 45 320 0.0 0.0 0.00 0.00 0.00 93 1011.3
20191018043339 45 320 0.0 0.0 0.00 0.00 0.00 94 1011.3
20191018043104 45 320 0.0 0.0 0.00 0.00 0.00 94 1011.3
20191018042835 45 320 0.0 0.0 0.00 0.00 0.00 94 1011.3
20191018042600 45 320 0.0 0.0 0.00 0.00 0.00 94 1011.3
20191018042103 45 320 0.0 0.0 0.00 0.00 0.00 93 1011.2
20191018041601 45 320 0.0 0.0 0.00 0.00 0.00 93 1011.3
20191018041101 45 320 0.0 0.0 0.00 0.00 0.00 93 1011.3
20191018040834 45 320 0.0 0.0 0.00 0.00 0.00 93 1011.3
20191018040559 45 320 0.0 0.0 0.00 0.00 0.00 93 1011.3
20191018040100 45 320 0.0 0.0 0.00 0.00 0.00 92 1011.2
20191018035600 45 320 0.0 0.0 0.00 0.00 0.00 92 1011.3
20191018035100 45 320 0.0 0.0 0.00 0.00 0.00 92 1011.3
20191018034559 45 320 0.0 0.0 0.00 0.00 0.00 92 1011.3
20191018034059 46 320 0.0 0.0 0.00 0.00 0.00 92 1011.2
20191018033559 46 320 0.0 0.0 0.00 0.00 0.00 91 1011.2
20191018033059 46 320 0.0 0.0 0.00 0.00 0.00 91 1011.1
20191018032601 46 320 0.0 0.0 0.00 0.00 0.00 91 1011.0
20191018032059 46 320 0.0 0.0 0.00 0.00 0.00 92 1011.0
20191018031559 46 320 0.0 0.0 0.00 0.00 0.00 92 1011.0
20191018031100 46 320 0.0 1.0 0.00 0.00 0.00 92 1011.0
20191018030559 46 320 0.0 1.0 0.00 0.00 0.00 92 1010.9
20191018030102 46 320 0.0 0.0 0.00 0.00 0.00 92 1011.0
20191018025559 46 320 0.0 0.0 0.00 0.00 0.00 91 1011.0
20191018025059 46 320 0.0 0.0 0.00 0.00 0.00 90 1011.0
20191018024834 46 320 0.0 0.0 0.00 0.00 0.00 90 1011.0
20191018024559 46 320 0.0 0.0 0.00 0.00 0.00 90 1011.0
20191018024100 46 320 0.0 0.0 0.00 0.00 0.00 90 1010.9
20191018023559 47 320 0.0 0.0 0.00 0.00 0.00 90 1010.7
20191018023058 47 320 0.0 0.0 0.00 0.00 0.00 90 1010.7
20191018022555 47 320 0.0 0.0 0.00 0.00 0.00 89 1010.7
20191018022056 47 320 0.0 0.0 0.00 0.00 0.00 89 1010.6
20191018021555 47 320 0.0 0.0 0.00 0.00 0.00 89 1010.6
20191018021330 47 320 0.0 0.0 0.00 0.00 0.00 88 1010.6
20191018021055 47 320 0.0 0.0 0.00 0.00 0.00 88 1010.6
20191018020555 47 320 0.0 0.0 0.00 0.00 0.00 88 1010.5
20191018020055 48 320 0.0 0.0 0.00 0.00 0.00 89 1010.4
20191018015555 48 320 0.0 0.0 0.00 0.00 0.00 89 1010.4
20191018015055 48 320 0.0 0.0 0.00 0.00 0.00 89 1010.4
20191018014832 48 320 0.0 0.0 0.00 0.00 0.00 89 1010.3
20191018014555 48 320 0.0 0.0 0.00 0.00 0.00 89 1010.3
20191018014052 48 320 0.0 0.0 0.00 0.00 0.00 89 1010.3
20191018013551 48 320 0.0 0.0 0.00 0.00 0.00 89 1010.2
20191018013053 48 320 0.0 0.0 0.00 0.00 0.00 88 1010.1
20191018012551 48 320 0.0 0.0 0.00 0.00 0.00 88 1009.9
20191018012059 48 320 0.0 0.0 0.00 0.00 0.00 87 1010.1
20191018011552 48 320 0.0 0.0 0.00 0.00 0.00 85 1010.2
20191018011053 49 320 0.0 0.0 0.00 0.00 0.00 86 1010.1
20191018010551 49 320 0.0 1.0 0.00 0.00 0.00 85 1010.1
20191018010332 49 320 0.0 0.0 0.00 0.00 0.00 87 1010.0
20191018010051 49 320 0.0 1.0 0.00 0.00 0.00 86 1010.0
20191018005551 49 320 0.0 0.0 0.00 0.00 0.00 87 1010.0
20191018005326 49 320 0.0 0.0 0.00 0.00 0.00 86 1009.9
20191018005211 49 320 0.0 0.0 0.00 0.00 0.00 87 1009.9
20191018005050 49 320 0.0 0.0 0.00 0.00 0.00 86 1009.9
20191018004549 49 320 0.0 0.0 0.00 0.00 0.00 87 1009.9
20191018004049 49 320 0.0 0.0 0.00 0.00 0.00 85 1009.9
20191018003550 50 320 0.0 0.0 0.00 0.00 0.00 85 1009.8
20191018003049 50 320 0.0 0.0 0.00 0.00 0.00 84 1009.8
20191018002550 50 320 0.0 0.0 0.00 0.00 0.00 84 1009.8
20191018002049 50 320 0.0 1.0 0.00 0.00 0.00 83 1009.7
20191018001826 50 320 0.0 1.0 0.00 0.00 0.00 81 1009.6
20191018001550 50 320 0.0 1.0 0.00 0.00 0.00 81 1009.6
20191018001049 51 320 0.0 0.0 0.00 0.00 0.00 81 1009.6
20191018000824 51 320 0.0 0.0 0.00 0.00 0.00 80 1009.5
20191018000549 51 320 0.0 0.0 0.00 0.00 0.00 80 1009.5
20191018000100 51 320 0.0 1.0 0.00 0.00 0.00 81 1009.4
20191018000049 51 320 0.0 0.0 0.00 0.00 0.00 80 1009.4
20191017235549 51 320 0.0 1.0 0.00 0.00 0.00 81 1009.4
20191017235048 52 320 0.0 1.0 0.00 0.00 0.00 80 1009.3
20191017234547 52 320 0.0 1.0 0.00 0.00 0.00 79 1009.2
20191017234321 52 320 0.0 1.0 0.00 0.00 0.00 81 1009.1
20191017234055 53 320 0.0 1.0 0.00 0.00 0.00 81 1009.1
20191017234046 52 320 0.0 1.0 0.00 0.00 0.00 81 1009.1
20191017233547 53 320 0.0 1.0 0.00 0.00 0.00 81 1009.1
20191017233047 53 320 0.0 1.0 0.00 0.00 0.00 81 1009.0
20191017232553 53 320 0.0 0.0 0.00 0.00 0.00 79 1009.0
20191017232321 54 320 0.0 0.0 0.00 0.00 0.00 76 1008.9
20191017232208 54 320 0.0 0.0 0.00 0.00 0.00 74 1008.7
20191017232047 54 320 0.0 0.0 0.00 0.00 0.00 76 1008.9
20191017231548 54 320 0.0 0.0 0.00 0.00 0.00 74 1008.7
20191017231047 54 320 0.0 0.0 0.00 0.00 0.00 72 1008.7
20191017230544 55 320 0.0 0.0 0.00 0.00 0.00 71 1008.7
20191017230326 56 320 0.0 0.0 0.00 0.00 0.00 71 1008.6
20191017230046 55 320 0.0 0.0 0.00 0.00 0.00 71 1008.6
20191017225546 56 320 0.0 0.0 0.00 0.00 0.00 71 1008.6
20191017225319 56 320 0.0 0.0 0.00 0.00 0.00 71 1008.6
20191017225044 56 320 0.0 0.0 0.00 0.00 0.00 71 1008.6
20191017224544 57 320 0.0 0.0 0.00 0.00 0.00 70 1008.4
20191017224321 57 320 0.0 0.0 0.00 0.00 0.00 67 1008.4
20191017224045 57 320 0.0 0.0 0.00 0.00 0.00 67 1008.4
20191017223822 58 320 0.0 0.0 0.00 0.00 0.00 69 1008.3
20191017223546 58 320 0.0 0.0 0.00 0.00 0.00 69 1008.3
20191017223045 58 320 0.0 0.0 0.00 0.00 0.00 66 1008.3
20191017222544 59 320 0.0 0.0 0.00 0.00 0.00 66 1008.2
20191017222046 59 320 0.0 3.0 0.00 0.00 0.00 63 1008.1
20191017221542 60 320 0.0 3.0 0.00 0.00 0.00 61 1008.1
20191017221041 60 319 0.0 1.0 0.00 0.00 0.00 60 1008.0
20191017220541 60 152 0.0 2.0 0.00 0.00 0.00 55 1008.0
20191017220317 61 63 0.0 2.0 0.00 0.00 0.00 54 1008.0
20191017220042 61 63 0.0 2.0 0.00 0.00 0.00 54 1008.0
20191017215821 61 281 1.0 9.0 0.00 0.00 0.00 52 1008.1
20191017215816 61 55 1.0 5.0 0.00 0.00 0.00 54 1008.0
20191017215541 61 55 1.0 5.0 0.00 0.00 0.00 54 1008.0
20191017215040 61 281 1.0 9.0 0.00 0.00 0.00 52 1008.1
20191017214541 61 250 1.0 9.0 0.00 0.00 0.00 53 1008.1
20191017214316 62 277 1.0 4.0 0.00 0.00 0.00 52 1008.0